Time,TemperatureF,DewpointF,PressureIn,WindDirection,WindDirectionDegrees,WindSpeedMPH,WindSpeedGustMPH,Humidity,HourlyPrecipIn,Conditions,Clouds,dailyrainin,SoftwareType,DateUTC
2014-01-11 00:12:00,25.0,11.0,29.55,WNW,296,0.0,0.0,55,0.00,,,0.00,,2014-01-11 06:12:00,
2014-01-11 00:22:00,25.0,12.0,29.55,West,261,0.0,0.0,56,0.00,,,0.00,,2014-01-11 06:22:00,
2014-01-11 00:52:00,24.0,11.0,29.55,West,261,0.0,0.0,57,0.00,,,0.00,,2014-01-11 06:52:00,
2014-01-11 01:12:00,24.0,11.0,29.55,WSW,257,0.0,0.0,58,0.00,,,0.00,,2014-01-11 07:12:00,
2014-01-11 01:22:00,24.0,11.0,29.55,WSW,255,0.0,0.0,57,0.00,,,0.00,,2014-01-11 07:22:00,
2014-01-11 01:42:00,24.0,11.0,29.55,West,273,0.0,0.0,57,0.00,,,0.00,,2014-01-11 07:42:00,
2014-01-11 01:52:00,23.0,10.0,29.55,WSW,250,0.0,0.0,58,0.00,,,0.00,,2014-01-11 07:52:00,
2014-01-11 02:12:00,24.0,13.0,29.55,West,272,0.0,0.0,61,0.00,,,0.00,,2014-01-11 08:12:00,
2014-01-11 02:21:00,24.0,13.0,29.55,West,259,0.0,0.0,61,0.00,,,0.00,,2014-01-11 08:21:00,
2014-01-11 02:42:00,23.0,12.0,29.57,West,264,0.0,0.0,61,0.00,,,0.00,,2014-01-11 08:42:00,
2014-01-11 02:52:00,22.0,11.0,29.57,West,264,0.0,0.0,63,0.00,,,0.00,,2014-01-11 08:52:00,
2014-01-11 03:11:00,23.0,13.0,29.58,West,264,0.0,0.0,65,0.00,,,0.00,,2014-01-11 09:11:00,
2014-01-11 03:22:00,23.0,13.0,29.59,West,264,0.0,0.0,66,0.00,,,0.00,,2014-01-11 09:22:00,
2014-01-11 03:44:00,24.0,15.0,29.59,West,267,0.0,0.0,67,0.00,,,0.00,,2014-01-11 09:44:00,
2014-01-11 03:53:00,25.0,16.0,29.60,West,269,0.0,0.0,69,0.00,,,0.00,,2014-01-11 09:53:00,
2014-01-11 04:12:00,26.0,17.0,29.61,NW,313,0.0,0.0,69,0.00,,,0.00,,2014-01-11 10:12:00,
2014-01-11 04:23:00,26.0,17.0,29.61,West,268,0.0,0.0,69,0.00,,,0.00,,2014-01-11 10:23:00,
2014-01-11 04:43:00,26.0,17.0,29.61,West,280,0.0,0.0,69,0.00,,,0.00,,2014-01-11 10:43:00,
2014-01-11 04:53:00,26.0,17.0,29.62,West,269,0.0,0.0,69,0.00,,,0.00,,2014-01-11 10:53:00,
2014-01-11 05:12:00,26.0,17.0,29.62,NW,317,0.0,0.0,68,0.00,,,0.00,,2014-01-11 11:12:00,
2014-01-11 05:22:00,26.0,17.0,29.62,WNW,288,0.0,0.0,68,0.00,,,0.00,,2014-01-11 11:22:00,
2014-01-11 05:42:00,26.0,17.0,29.63,WNW,294,0.0,0.0,68,0.00,,,0.00,,2014-01-11 11:42:00,
2014-01-11 05:52:00,26.0,17.0,29.62,NW,311,0.0,0.0,68,0.00,,,0.00,,2014-01-11 11:52:00,
2014-01-11 06:11:00,26.0,17.0,29.63,WNW,295,0.0,0.0,68,0.00,,,0.00,,2014-01-11 12:11:00,
2014-01-11 06:22:00,26.0,17.0,29.64,WNW,292,0.0,0.0,69,0.00,,,0.00,,2014-01-11 12:22:00,
2014-01-11 06:42:00,27.0,18.0,29.65,WNW,284,0.0,0.0,68,0.00,,,0.00,,2014-01-11 12:42:00,
2014-01-11 06:53:00,27.0,18.0,29.66,NW,320,0.0,0.0,67,0.00,,,0.00,,2014-01-11 12:53:00,
2014-01-11 07:11:00,26.0,17.0,29.66,WNW,298,0.0,0.0,67,0.00,,,0.00,,2014-01-11 13:11:00,
2014-01-11 07:22:00,26.0,17.0,29.67,WNW,291,0.0,0.0,68,0.00,,,0.00,,2014-01-11 13:22:00,
2014-01-11 07:42:00,26.0,17.0,29.68,North,355,0.0,0.0,68,0.00,,,0.00,,2014-01-11 13:42:00,
2014-01-11 07:52:00,26.0,18.0,29.68,WNW,294,0.0,0.0,70,0.00,,,0.00,,2014-01-11 13:52:00,
2014-01-11 08:11:00,26.0,18.0,29.68,WNW,295,0.0,0.0,71,0.00,,,0.00,,2014-01-11 14:11:00,
2014-01-11 08:22:00,27.0,19.0,29.68,West,265,0.0,0.0,71,0.00,,,0.00,,2014-01-11 14:22:00,
2014-01-11 08:42:00,27.0,19.0,29.69,West,263,0.0,0.0,71,0.00,,,0.00,,2014-01-11 14:42:00,
2014-01-11 08:52:00,27.0,19.0,29.69,West,262,0.0,0.0,71,0.00,,,0.00,,2014-01-11 14:52:00,
2014-01-11 09:22:00,27.0,19.0,29.70,SW,235,0.0,0.0,71,0.00,,,0.00,,2014-01-11 15:22:00,
2014-01-11 09:43:00,28.0,20.0,29.71,WNW,296,0.0,0.0,70,0.00,,,0.00,,2014-01-11 15:43:00,
2014-01-11 09:54:00,28.0,19.0,29.71,WNW,293,0.0,0.0,68,0.00,,,0.00,,2014-01-11 15:54:00,
2014-01-11 10:13:00,28.0,18.0,29.72,West,267,0.0,0.0,67,0.00,,,0.00,,2014-01-11 16:13:00,
2014-01-11 10:53:00,29.0,18.0,29.73,West,261,0.0,0.0,64,0.00,,,0.00,,2014-01-11 16:53:00,
2014-01-11 11:02:00,29.0,18.0,29.73,West,261,0.0,0.0,64,0.00,,,0.00,,2014-01-11 17:02:00,
2014-01-11 11:12:00,29.0,18.0,29.73,West,261,0.0,0.0,64,0.00,,,0.00,,2014-01-11 17:12:00,
2014-01-11 11:23:00,30.0,18.0,29.74,West,267,0.0,0.0,61,0.00,,,0.00,,2014-01-11 17:23:00,
2014-01-11 11:42:00,30.0,18.0,29.74,WSW,245,0.0,0.0,61,0.00,,,0.00,,2014-01-11 17:42:00,
2014-01-11 11:52:00,30.0,18.0,29.74,WSW,245,0.0,0.0,61,0.00,,,0.00,,2014-01-11 17:52:00,
2014-01-11 12:12:00,30.0,19.0,29.74,WSW,250,0.0,0.0,62,0.00,,,0.00,,2014-01-11 18:12:00,
2014-01-11 12:22:00,30.0,19.0,29.73,West,261,0.0,0.0,62,0.00,,,0.00,,2014-01-11 18:22:00,
2014-01-11 12:42:00,30.0,18.0,29.72,West,269,0.0,0.0,60,0.00,,,0.00,,2014-01-11 18:42:00,
2014-01-11 12:52:00,31.0,19.0,29.72,WSW,256,0.0,0.0,60,0.00,,,0.00,,2014-01-11 18:52:00,
2014-01-11 13:12:00,31.0,18.0,29.71,WSW,252,0.0,0.0,59,0.00,,,0.00,,2014-01-11 19:12:00,
2014-01-11 13:23:00,31.0,18.0,29.70,West,271,0.0,0.0,58,0.00,,,0.00,,2014-01-11 19:23:00,
2014-01-11 13:52:00,32.0,19.0,29.68,West,260,5.0,7.0,57,0.00,,,0.00,,2014-01-11 19:52:00,
2014-01-11 14:11:00,33.0,18.0,29.68,West,269,6.0,9.0,54,0.00,,,0.00,,2014-01-11 20:11:00,
2014-01-11 14:22:00,33.0,17.0,29.68,WSW,250,10.0,15.0,52,0.00,,,0.00,,2014-01-11 20:22:00,
2014-01-11 14:52:00,33.0,18.0,29.67,WSW,253,9.0,15.0,54,0.00,,,0.00,,2014-01-11 20:52:00,
2014-01-11 18:11:00,27.0,15.0,29.68,WSW,250,0.0,0.0,59,0.00,,,0.00,,2014-01-12 00:11:00,
2014-01-11 19:22:00,26.0,14.0,29.65,WSW,247,0.0,0.0,59,0.00,,,0.00,,2014-01-12 01:22:00,
2014-01-11 19:42:00,26.0,13.0,29.65,WSW,247,0.0,0.0,58,0.00,,,0.00,,2014-01-12 01:42:00,
2014-01-11 19:52:00,25.0,13.0,29.64,SSE,149,0.0,0.0,60,0.00,,,0.00,,2014-01-12 01:52:00,
2014-01-11 20:11:00,25.0,13.0,29.64,SSE,161,0.0,0.0,59,0.00,,,0.00,,2014-01-12 02:11:00,
2014-01-11 20:42:00,25.0,13.0,29.63,South,189,0.0,0.0,61,0.00,,,0.00,,2014-01-12 02:42:00,
2014-01-11 20:52:00,27.0,14.0,29.62,SE,139,0.0,0.0,57,0.00,,,0.00,,2014-01-12 02:52:00,
2014-01-11 21:11:00,27.0,14.0,29.62,SSE,147,0.0,0.0,58,0.00,,,0.00,,2014-01-12 03:11:00,
2014-01-11 21:22:00,26.0,13.0,29.60,SE,130,0.0,0.0,58,0.00,,,0.00,,2014-01-12 03:22:00,
2014-01-11 21:43:00,26.0,14.0,29.60,South,174,0.0,0.0,61,0.00,,,0.00,,2014-01-12 03:43:00,
2014-01-11 21:54:00,26.0,15.0,29.58,ESE,106,0.0,0.0,62,0.00,,,0.00,,2014-01-12 03:54:00,
2014-01-11 22:02:00,-999.0,-99.9,29.58,SE,136,0.0,0.0,-999,0.00,,,0.00,,2014-01-12 04:02:00,
2014-01-11 22:13:00,27.0,16.0,29.58,SE,136,0.0,0.0,63,0.00,,,0.00,,2014-01-12 04:13:00,
2014-01-11 22:23:00,27.0,16.0,29.56,SE,135,0.0,0.0,62,0.00,,,0.00,,2014-01-12 04:23:00,
2014-01-11 22:43:00,27.0,16.0,29.55,SE,142,0.0,0.0,62,0.00,,,0.00,,2014-01-12 04:43:00,
2014-01-11 22:52:00,27.0,16.0,29.54,ESE,121,0.0,0.0,63,0.00,,,0.00,,2014-01-12 04:52:00,
2014-01-11 23:12:00,27.0,17.0,29.53,SE,143,0.0,0.0,65,0.00,,,0.00,,2014-01-12 05:12:00,
2014-01-11 23:22:00,26.0,16.0,29.51,SE,139,0.0,0.0,64,0.00,,,0.00,,2014-01-12 05:22:00,
2014-01-11 23:43:00,26.0,16.0,29.50,SE,140,0.0,0.0,66,0.00,,,0.00,,2014-01-12 05:43:00,
2014-01-11 23:52:00,26.0,17.0,29.50,SE,132,0.0,0.0,67,0.00,,,0.00,,2014-01-12 05:52:00,